Montauk, NY

4:06 AM EDT on September 21, 2017 (GMT -0400)
Montauk

Weather History for KMTP - January, 2014

Change the Weather History Date:

Wednesday, January 29, 2014

  Actual Average (KHTO) Record (KHTO)
Temperature  
Mean Temperature 21 °F -  
Max Temperature 24 °F 38 °F 43 °F (2017)
Min Temperature 18 °F 21 °F 17 °F (2014)
Degree Days  
Heating Degree Days 44    
Moisture  
Dew Point 8 °F    
Average Humidity 60    
Maximum Humidity 84    
Minimum Humidity 40    
Precipitation  
Precipitation 0.19 in - - ()
Sea Level Pressure  
Sea Level Pressure 30.15 in    
Wind  
Wind Speed 7 mph (WNW)    
Max Wind Speed 14 mph    
Max Gust Speed 24 mph    
Averages and records for this station are not official NWS values.
T = Trace of Precipitation, MM = Missing Value Source: NWS Daily Summary

Daily Weather History Graph

Daily Weather History Graph

Search for Another Location

Airport or City:

Trip Planner

Search our weather history database for the weather conditions in past years. The results will help you decide how hot, cold, wet, or windy it might be!

Date:

Astronomy

Jan. 29, 2014 Rise Set
Actual Time 7:01 AM EST 5:00 PM EST
Civil Twilight 6:31 AM EST 5:30 PM EST
Nautical Twilight 5:58 AM EST 6:03 PM EST
Astronomical Twilight 5:26 AM EST 6:35 PM EST
Moon 5:35 AM EST (1/29) 3:57 PM EST (1/29)
Length of Visible Light 10h 58m
Length of Day
9h 59m
Waning Crescent, 2% of the Moon is Illuminated
Jan 29
Waning Crescent
Jan 30
New
Feb 6
First Quarter
Feb 14
Full
Feb 22
Last Quarter

Hourly Weather History & Observations

Time (EST) Temp. Windchill Dew Point Humidity Pressure Visibility Wind Dir Wind Speed Gust Speed Precip Events Conditions
12:54 AM 21.0 °F - 10.0 °F 63% 30.22 in - Calm Calm - N/A   Unknown
1:54 AM 19.0 °F 11.1 °F 10.9 °F 71% 30.20 in - NNW 5.8 mph - 0.01 in   Unknown
2:54 AM 19.0 °F 9.0 °F 12.0 °F 74% 30.18 in - NNW 8.1 mph - 0.01 in   Unknown
3:54 AM 18.0 °F 7.7 °F 12.9 °F 81% 30.16 in - North 8.1 mph - 0.01 in   Unknown
4:54 AM 18.0 °F 7.7 °F 12.9 °F 81% 30.12 in - North 8.1 mph - 0.02 in   Unknown
5:54 AM 18.0 °F 7.7 °F 12.9 °F 81% 30.14 in - NNW 8.1 mph - 0.02 in   Unknown
6:54 AM 18.0 °F 8.7 °F 14.0 °F 84% 30.13 in - North 6.9 mph - 0.06 in   Unknown
7:54 AM 18.0 °F 8.7 °F 14.0 °F 84% 30.13 in - NNW 6.9 mph - 0.05 in   Unknown
8:54 AM 19.0 °F 8.2 °F 12.9 °F 77% 30.14 in - NNW 9.2 mph - N/A   Unknown
9:54 AM 19.0 °F 8.2 °F 12.0 °F 74% 30.14 in - NW 9.2 mph - N/A   Unknown
10:54 AM 19.9 °F 9.3 °F 8.1 °F 60% 30.12 in - WNW 9.2 mph - 0.01 in   Unknown
11:54 AM 21.0 °F 10.6 °F 7.0 °F 55% 30.10 in - WNW 9.2 mph - N/A   Unknown
12:54 PM 21.0 °F 9.3 °F 7.0 °F 55% 30.09 in - West 11.5 mph 18.4 mph N/A   Unknown
1:54 PM 21.9 °F 11.0 °F 6.1 °F 51% 30.07 in - WSW 10.4 mph 18.4 mph N/A   Unknown
2:54 PM 21.9 °F 11.7 °F 6.1 °F 51% 30.08 in - WSW 9.2 mph 19.6 mph N/A   Unknown
3:54 PM 23.0 °F 12.4 °F 5.0 °F 46% 30.09 in - WSW 10.4 mph 19.6 mph N/A   Unknown
4:54 PM 21.9 °F 10.4 °F 3.9 °F 46% 30.10 in - SW 11.5 mph 23.0 mph N/A   Unknown
5:54 PM 23.0 °F 13.9 °F 1.9 °F 40% 30.13 in - WSW 8.1 mph 17.3 mph N/A   Unknown
6:54 PM 23.0 °F 14.7 °F 5.0 °F 46% 30.17 in - WSW 6.9 mph - N/A   Unknown
7:54 PM 21.9 °F 11.0 °F 3.9 °F 46% 30.19 in - SW 10.4 mph - N/A   Unknown
8:54 PM 21.9 °F 11.7 °F 5.0 °F 48% 30.20 in - SW 9.2 mph 19.6 mph N/A   Unknown
9:54 PM 21.0 °F 9.9 °F 6.1 °F 53% 30.23 in - West 10.4 mph 16.1 mph N/A   Unknown
10:54 PM 24.1 °F 12.0 °F 3.9 °F 42% 30.24 in - WNW 13.8 mph 24.2 mph N/A   Unknown
11:54 PM 23.0 °F 10.6 °F 1.9 °F 40% 30.27 in - WNW 13.8 mph 21.9 mph N/A   Unknown